Time,TemperatureF,DewpointF,PressureIn,WindDirection,WindDirectionDegrees,WindSpeedMPH,WindSpeedGustMPH,Humidity,HourlyPrecipIn,Conditions,Clouds,dailyrainin,SolarRadiationWatts/m^2,SoftwareType,DateUTC
2013-12-16 00:01:00,60.0,21.0,-100.00,NNW,334,6.0,8.0,22,0.00,,,0.00,0.000000,,2013-12-16 07:01:00,
2013-12-16 00:43:00,54.0,20.0,-100.00,NNW,337,4.0,9.0,26,-99.99,,,0.00,0.000000,,2013-12-16 07:43:00,
2013-12-16 00:52:00,54.0,20.0,-100.00,NNW,337,4.0,9.0,26,-99.99,,,0.00,0.000000,,2013-12-16 07:52:00,
2013-12-16 01:02:00,54.0,20.0,-100.00,NNW,337,4.0,9.0,26,-99.99,,,0.00,0.000000,,2013-12-16 08:02:00,
2013-12-16 01:42:00,54.0,21.0,-100.00,North,352,3.0,8.0,27,0.00,,,0.00,0.000000,,2013-12-16 08:42:00,
2013-12-16 01:52:00,54.0,21.0,-100.00,North,352,3.0,8.0,27,0.00,,,0.00,0.000000,,2013-12-16 08:52:00,
2013-12-16 02:03:00,54.0,21.0,-100.00,North,352,3.0,8.0,27,0.00,,,0.00,0.000000,,2013-12-16 09:03:00,
2013-12-16 02:43:00,55.0,18.0,-100.00,NW,324,7.0,11.0,23,0.00,,,0.00,0.000000,,2013-12-16 09:43:00,
2013-12-16 02:53:00,55.0,18.0,-100.00,NW,324,7.0,11.0,23,0.00,,,0.00,0.000000,,2013-12-16 09:53:00,
2013-12-16 03:02:00,55.0,18.0,-100.00,NW,324,7.0,11.0,23,0.00,,,0.00,0.000000,,2013-12-16 10:02:00,
2013-12-16 03:43:00,59.0,18.0,-100.00,NW,325,5.0,11.0,20,0.00,,,0.00,0.000000,,2013-12-16 10:43:00,
2013-12-16 03:52:00,59.0,18.0,-100.00,NW,325,5.0,11.0,20,0.00,,,0.00,0.000000,,2013-12-16 10:52:00,
2013-12-16 04:02:00,59.0,18.0,-100.00,NW,325,5.0,11.0,20,0.00,,,0.00,0.000000,,2013-12-16 11:02:00,
2013-12-16 04:42:00,60.0,19.0,-100.00,North,2,6.0,11.0,20,0.00,,,-99.99,0.000000,,2013-12-16 11:42:00,
2013-12-16 04:53:00,60.0,19.0,-100.00,North,2,6.0,11.0,20,0.00,,,-99.99,0.000000,,2013-12-16 11:53:00,
2013-12-16 05:02:00,60.0,19.0,-100.00,North,2,6.0,11.0,20,0.00,,,-99.99,0.000000,,2013-12-16 12:02:00,
2013-12-16 09:43:00,57.0,20.0,-100.00,WNW,300,2.0,9.0,23,0.00,,,0.00,17.000000,,2013-12-16 16:43:00,
2013-12-16 09:52:00,57.0,20.0,-100.00,WNW,300,2.0,9.0,23,0.00,,,0.00,17.000000,,2013-12-16 16:52:00,
2013-12-16 10:02:00,57.0,20.0,-100.00,WNW,300,2.0,9.0,23,0.00,,,0.00,17.000000,,2013-12-16 17:02:00,
2013-12-16 10:43:00,63.0,20.0,-100.00,NNW,346,6.0,11.0,19,0.00,,,0.00,155.000000,,2013-12-16 17:43:00,
2013-12-16 10:52:00,63.0,20.0,-100.00,NNW,346,6.0,11.0,19,0.00,,,0.00,155.000000,,2013-12-16 17:52:00,
2013-12-16 11:02:00,63.0,20.0,-100.00,NNW,346,6.0,11.0,19,0.00,,,0.00,155.000000,,2013-12-16 18:02:00,
2013-12-16 20:53:00,68.0,22.0,-100.00,WNW,293,2.0,7.0,17,0.00,,,0.00,0.000000,,2013-12-17 03:53:00,
2013-12-16 21:03:00,68.0,22.0,-100.00,WNW,293,2.0,7.0,17,0.00,,,0.00,0.000000,,2013-12-17 04:03:00,
2013-12-16 21:43:00,65.0,25.0,-100.00,WNW,299,4.0,8.0,22,0.00,,,0.00,0.000000,,2013-12-17 04:43:00,
2013-12-16 21:53:00,65.0,25.0,-100.00,WNW,299,4.0,8.0,22,0.00,,,0.00,0.000000,,2013-12-17 04:53:00,
2013-12-16 22:02:00,65.0,25.0,-100.00,WNW,299,4.0,8.0,22,0.00,,,0.00,0.000000,,2013-12-17 05:02:00,
2013-12-16 22:42:00,66.0,21.0,-100.00,NW,324,5.0,10.0,18,0.00,,,0.00,0.000000,,2013-12-17 05:42:00,
2013-12-16 22:53:00,66.0,21.0,-100.00,NW,324,5.0,10.0,18,0.00,,,0.00,0.000000,,2013-12-17 05:53:00,
2013-12-16 23:02:00,66.0,21.0,-100.00,NW,324,5.0,10.0,18,0.00,,,0.00,0.000000,,2013-12-17 06:02:00,